• In Netherlands
  • List of Countries
  • For 7 days
  • Water Temperature
  • Satellite Maps
  • Weather Map
  • Weather Widgets
  • user-avatar
    Login

    Hourly Weather Mahilyow

    Today, 28 March, Tuesday

    Time Temperature Precipitation Wind Pressure Humidity
    00:00 +3°C° 0 mm 5 mps 741 mmHg 87%
    01:00 +3°C° 0 mm 5 mps 740 mmHg 87%
    02:00 +3°C° 0 mm 6 mps 740 mmHg 88%
    03:00 +3°C° 0 mm 6 mps 740 mmHg 87%
    04:00 +4°C° 0 mm 6 mps 740 mmHg 86%
    05:00 +4°C° 0 mm 6 mps 740 mmHg 85%
    06:00 +3°C° 0 mm 6 mps 740 mmHg 81%
    07:00 +3°C° 0 mm 7 mps 741 mmHg 77%
    08:00 +3°C° 0 mm 7 mps 741 mmHg 73%
    09:00 +3°C° 0 mm 7 mps 742 mmHg 68%
    10:00 +3°C° 0 mm 7 mps 742 mmHg 63%
    11:00 +4°C° 0 mm 7 mps 743 mmHg 57%
    12:00 +4°C° 0 mm 7 mps 743 mmHg 57%
    13:00 +4°C° 0 mm 7 mps 743 mmHg 56%
    14:00 +4°C° 0 mm 6 mps 744 mmHg 55%
    15:00 +3°C° 0 mm 6 mps 744 mmHg 57%
    16:00 +3°C° 0 mm 5 mps 745 mmHg 58%
    17:00 +3°C° 0 mm 5 mps 745 mmHg 60%
    18:00 +3°C° 0 mm 4 mps 745 mmHg 62%
    19:00 +3°C° 0 mm 4 mps 746 mmHg 65%
    20:00 +2°C° 0 mm 3 mps 746 mmHg 67%
    21:00 +1°C° 0 mm 3 mps 747 mmHg 70%
    22:00 0°C° 0 mm 4 mps 747 mmHg 72%
    23:00 -1°C° 0 mm 4 mps 747 mmHg 74%

    Tomorrow, 29 March, Wednesday

    Time Temperature Precipitation Wind Pressure Humidity
    00:00 -1°C° 0 mm 3 mps 748 mmHg 77%
    01:00 -1°C° 0 mm 3 mps 748 mmHg 79%
    02:00 -2°C° 0 mm 3 mps 749 mmHg 81%
    03:00 -2°C° 0 mm 3 mps 749 mmHg 82%
    04:00 -2°C° 0 mm 2 mps 749 mmHg 83%
    05:00 -3°C° 0 mm 2 mps 749 mmHg 83%
    06:00 -2°C° 0 mm 2 mps 750 mmHg 78%
    07:00 -1°C° 0 mm 2 mps 750 mmHg 73%
    08:00 +2°C° 0 mm 1 mps 750 mmHg 68%
    09:00 +2°C° 0 mm 2 mps 750 mmHg 61%
    10:00 +3°C° 0 mm 2 mps 750 mmHg 54%
    11:00 +4°C° 0 mm 2 mps 750 mmHg 48%
    12:00 +5°C° 0 mm 2 mps 749 mmHg 46%
    13:00 +5°C° 0 mm 2 mps 749 mmHg 45%
    14:00 +6°C° 0 mm 2 mps 748 mmHg 44%
    15:00 +6°C° 0 mm 1 mps 748 mmHg 47%
    16:00 +6°C° 0 mm 1 mps 747 mmHg 51%
    17:00 +5°C° 0 mm 0 mps 747 mmHg 55%
    18:00 +5°C° 0.7 mm 1 mps 746 mmHg 63%
    19:00 +4°C° 0.7 mm 1 mps 746 mmHg 70%
    20:00 +3°C° 0.7 mm 1 mps 745 mmHg 78%
    21:00 +3°C° 0.3 mm 1 mps 745 mmHg 82%
    22:00 +3°C° 0.3 mm 1 mps 745 mmHg 86%
    23:00 +2°C° 0.3 mm 1 mps 744 mmHg 90%

    Day after tomorrow, 30 March, Thursday

    Time Temperature Precipitation Wind Pressure Humidity
    00:00 +2°C° 0.1 mm 1 mps 745 mmHg 91%
    01:00 +2°C° 0.1 mm 1 mps 745 mmHg 93%
    02:00 +2°C° 0.1 mm 1 mps 745 mmHg 94%
    03:00 +2°C° 0 mm 1 mps 745 mmHg 94%
    04:00 -1°C° 0 mm 2 mps 745 mmHg 95%
    05:00 -1°C° 0 mm 2 mps 746 mmHg 95%
    06:00 +1°C° 0 mm 2 mps 747 mmHg 92%
    07:00 +1°C° 0 mm 2 mps 747 mmHg 89%
    08:00 0°C° 0 mm 3 mps 748 mmHg 86%
    09:00 +1°C° 0 mm 3 mps 749 mmHg 81%
    10:00 +2°C° 0 mm 3 mps 749 mmHg 76%
    11:00 +3°C° 0 mm 4 mps 750 mmHg 71%
    12:00 +3°C° 0 mm 4 mps 750 mmHg 70%
    13:00 +3°C° 0 mm 4 mps 751 mmHg 68%
    14:00 +2°C° 0 mm 5 mps 751 mmHg 67%
    15:00 +3°C° 0 mm 4 mps 752 mmHg 67%
    16:00 +1°C° 0 mm 4 mps 753 mmHg 67%
    17:00 +2°C° 0 mm 3 mps 753 mmHg 67%
    18:00 0°C° 0 mm 3 mps 754 mmHg 72%
    19:00 -1°C° 0 mm 2 mps 755 mmHg 76%
    20:00 -2°C° 0 mm 2 mps 756 mmHg 81%
    21:00 0°C° 0 mm 1 mps 756 mmHg 79%
    22:00 -1°C° 0 mm 1 mps 756 mmHg 77%
    23:00 -1°C° 0 mm 1 mps 757 mmHg 76%

    31 March, Friday

    Time Temperature Precipitation Wind Pressure Humidity
    00:00 -1°C° 0 mm 1 mps 757 mmHg 75%
    01:00 -1°C° 0 mm 1 mps 757 mmHg 73%
    02:00 -1°C° 0 mm 1 mps 757 mmHg 72%
    03:00 -1°C° 0 mm 1 mps 757 mmHg 72%
    04:00 -3°C° 0 mm 2 mps 757 mmHg 72%
    05:00 -3°C° 0 mm 2 mps 757 mmHg 72%
    06:00 -2°C° 0 mm 3 mps 756 mmHg 69%
    07:00 -2°C° 0 mm 4 mps 755 mmHg 66%
    08:00 -1°C° 0 mm 5 mps 755 mmHg 64%
    09:00 -1°C° 0.9 mm 5 mps 754 mmHg 70%
    10:00 -1°C° 0.9 mm 5 mps 753 mmHg 76%
    11:00 -1°C° 0.9 mm 4 mps 753 mmHg 82%
    12:00 -1°C° 1.5 mm 4 mps 752 mmHg 86%
    13:00 -1°C° 1.5 mm 4 mps 751 mmHg 91%
    14:00 0°C° 1.5 mm 4 mps 750 mmHg 95%
    15:00 +1°C° 0.7 mm 3 mps 750 mmHg 96%
    16:00 +1°C° 0.7 mm 3 mps 750 mmHg 98%
    17:00 +1°C° 0.7 mm 3 mps 749 mmHg 99%
    18:00 +2°C° 0.1 mm 3 mps 749 mmHg 99%
    19:00 +3°C° 0.1 mm 2 mps 749 mmHg 99%
    20:00 +3°C° 0.1 mm 2 mps 749 mmHg 99%
    21:00 +3°C° 0 mm 2 mps 749 mmHg 99%
    22:00 +3°C° 0 mm 2 mps 749 mmHg 99%
    23:00 +3°C° 0 mm 2 mps 750 mmHg 99%

    1 April, Saturday

    Time Temperature Precipitation Wind Pressure Humidity
    00:00 +3°C° 0 mm 2 mps 750 mmHg 99%
    01:00 +3°C° 0 mm 2 mps 750 mmHg 99%
    02:00 +3°C° 0 mm 2 mps 750 mmHg 99%
    03:00 +3°C° 0 mm 2 mps 750 mmHg 99%
    04:00 +3°C° 0 mm 2 mps 751 mmHg 99%
    05:00 +2°C° 0 mm 2 mps 751 mmHg 99%
    06:00 +4°C° 0 mm 1 mps 751 mmHg 99%
    07:00 +4°C° 0 mm 1 mps 751 mmHg 99%
    08:00 +5°C° 0 mm 1 mps 752 mmHg 99%
    09:00 +6°C° 0 mm 1 mps 752 mmHg 97%
    10:00 +7°C° 0 mm 1 mps 752 mmHg 94%
    11:00 +8°C° 0 mm 1 mps 752 mmHg 91%
    12:00 +9°C° 0 mm 1 mps 752 mmHg 90%
    13:00 +9°C° 0 mm 1 mps 752 mmHg 90%
    14:00 +10°C° 0 mm 1 mps 752 mmHg 89%
    15:00 +10°C° 0.1 mm 1 mps 752 mmHg 91%
    16:00 +8°C° 0.1 mm 2 mps 752 mmHg 94%
    17:00 +8°C° 0.1 mm 2 mps 752 mmHg 96%
    18:00 +8°C° 0.1 mm 2 mps 752 mmHg 97%
    19:00 +7°C° 0.1 mm 2 mps 752 mmHg 97%
    20:00 +6°C° 0.1 mm 2 mps 752 mmHg 98%
    21:00 +6°C° 0.2 mm 2 mps 752 mmHg 98%
    22:00 +6°C° 0.2 mm 2 mps 752 mmHg 98%
    23:00 +6°C° 0.2 mm 2 mps 751 mmHg 98%

    2 April, Sunday

    Time Temperature Precipitation Wind Pressure Humidity
    00:00 +6°C° 0.1 mm 2 mps 751 mmHg 98%
    01:00 +6°C° 0.1 mm 2 mps 751 mmHg 98%
    02:00 +6°C° 0.1 mm 2 mps 751 mmHg 98%
    03:00 +6°C° 0 mm 2 mps 751 mmHg 98%
    04:00 +6°C° 0 mm 2 mps 751 mmHg 98%
    05:00 +6°C° 0 mm 2 mps 751 mmHg 98%
    06:00 +7°C° 0 mm 2 mps 751 mmHg 96%
    07:00 +8°C° 0 mm 3 mps 751 mmHg 95%
    08:00 +9°C° 0 mm 3 mps 751 mmHg 93%
    09:00 +10°C° 0 mm 3 mps 751 mmHg 89%
    10:00 +12°C° 0 mm 3 mps 751 mmHg 84%
    11:00 +14°C° 0 mm 3 mps 751 mmHg 80%
    12:00 +16°C° 0 mm 3 mps 750 mmHg 76%
    13:00 +17°C° 0 mm 4 mps 750 mmHg 73%
    14:00 +18°C° 0 mm 4 mps 750 mmHg 69%
    15:00 +17°C° 0 mm 3 mps 749 mmHg 72%
    16:00 +16°C° 0 mm 3 mps 749 mmHg 74%
    17:00 +16°C° 0 mm 2 mps 749 mmHg 77%
    18:00 +14°C° 0 mm 2 mps 748 mmHg 82%
    19:00 +13°C° 0 mm 2 mps 748 mmHg 86%
    20:00 +12°C° 0 mm 2 mps 748 mmHg 90%
    21:00 +10°C° 0.3 mm 2 mps 748 mmHg 91%
    22:00 +10°C° 0.3 mm 2 mps 747 mmHg 93%
    23:00 +9°C° 0.3 mm 2 mps 747 mmHg 94%
    Show more